STARLINK-35862, 66628

Orbit data source: Space-Track

STARLINK-35862, 66628 is a payload satellite owned by SpaceX/Seattle (US) in LEO that was launched on Sun, 23 Nov 2025 UTC via an FALCON 9 launch vehicle from the Air Force Western Test Range (AFWTR). Payload-class satellites include a variety of spacecraft equipped with specific instruments for various scientific and technological missions. These include communications satellites like Starlink; space stations such as the ISS; scientific satellites like the Hubble; Earth observation satellites from companies like Planet Labs, Umbra, and HawkEye 360; GPS; miniature CubeSats for education and research; and military/defense satellites.

Loading next visibility...
Identifier
66628, 2025-271M
Orbit
LEO
Country
Flag of USUS
Related business
Manufacturer
SpaceX/Seattle
Mission
Operational Commercial Communications
Bus & Motor
STARLINK V2MO, Unknown motor
Mass
575 kg wet, ~530 kg dry
Launch date (UTC)
2025-11-23 (7 months ago)
Launch vehicle
FALCON 9
Launch site
Air Force Western Test Range (AFWTR)
Object type
Payload
Rocket body
Debris
Shape & HBR
Box + 2 Pan, 17.7 m
Radar Cross Section
36.964 m², Large (>1 m²)

Expand to show TLE details & history
Last TLE update: 3 days ago

TLE from 3 days ago
0 STARLINK-35862
1 66628U 25271M   26171.00689915  .00032645  00000-0  97241-3 0  9996
2 66628  53.1576  22.4328 0000877  69.7261 290.3836 15.34422397 33266
Epoch: 2026-06-20T00:09Z
TLE epoch observation values (Epoch: 2026-06-20T00:09:56.086Z)
Latitude
-0.00001°
Longitude
111.72139°
Altitude
463.329 km
Speed
7.636 km/s
True Right ascension
01h 29m 43s
True Declination
0° 00' 00"
Sunlit
Object was in daylight at epoch
Visualization orbit readout
Latitude
Unknown
Longitude
Unknown
Altitude
Unknown
Speed
Unknown
Apparent Right ascension
Unknown
Apparent Declination
Unknown
Sunlit
N/A
Visualization observer readout
Local Sidereal Time
07:31:39
Azimuth
Unknown
Elevation
Unknown
Doppler factor
Unknown
Orbital elements
Apogee altitude
463.494 km
Perigee altitude
462.294 km
Semi-major axis
6,841.031 km
Eccentricity
0.00009
Inclination
53.1576°
RAAN
22.4328°
Arg. of periapsis
69.7261°
True anomaly
290.37418°
Mean anomaly
290.3836°
Eccentric anomaly
290.37889°
Mean motion
3.83584 °/min
Orbital period
93.85 mins
BSTAR
0.00097241
Loading maneuver chart data...
Computing Atmospheric mass density...
Loading historical data...
Loading historical data...
Loading historical data...
Loading historical data...
Loading historical data...
Loading historical data...
Loading historical data...

Documentation

Showing up to 5 results
|